| time (UTC) | temp C | wind direction | speed KPH | gust KPH | rain 1hr cm | rain 24hr cm | rain mn cm | humidity % | barometer mb |
| 20260503013051 | 18 | 0 | 0.0 | 1.6 | 0.00 | 0.00 | 0.00 | 32 | 1014.8 |
| 20260503011601 | 19 | 0 | 0.0 | 0.0 | 0.00 | 0.00 | 0.00 | 33 | 1014.7 |
| 20260503010055 | 18 | 0 | 0.0 | 9.7 | 0.00 | 0.00 | 0.00 | 32 | 1015.0 |
| 20260503004611 | 19 | 324 | 0.0 | 9.7 | 0.00 | 0.00 | 0.00 | 33 | 1015.2 |
| 20260503003049 | 18 | 0 | 1.6 | 6.4 | 0.00 | 0.00 | 0.00 | 35 | 1015.2 |
| 20260503001556 | 18 | 335 | 4.8 | 12.9 | 0.00 | 0.00 | 0.00 | 34 | 1015.5 |
| 20260503000114 | 17 | 0 | 0.0 | 14.5 | 0.00 | 0.00 | 0.00 | 34 | 1015.7 |
| 20260502234556 | 18 | 79 | 3.2 | 11.3 | 0.00 | 0.00 | 0.00 | 34 | 1015.7 |
| 20260502233053 | 17 | 0 | 1.6 | 16.1 | 0.00 | 0.00 | 0.00 | 35 | 1015.8 |
| 20260502231558 | 18 | 17 | 6.4 | 16.1 | 0.00 | 0.00 | 0.00 | 34 | 1016.0 |
| 20260502230055 | 18 | 350 | 1.6 | 8.0 | 0.00 | 0.00 | 0.00 | 34 | 1016.2 |
| 20260502224604 | 19 | 59 | 6.4 | 14.5 | 0.00 | 0.00 | 0.00 | 33 | 1016.3 |
| 20260502223055 | 18 | 221 | 6.4 | 14.5 | 0.00 | 0.00 | 0.00 | 34 | 1016.6 |
| 20260502221554 | 18 | 286 | 0.0 | 3.2 | 0.00 | 0.00 | 0.00 | 35 | 1016.7 |
| 20260502220052 | 18 | 0 | 1.6 | 12.9 | 0.00 | 0.00 | 0.00 | 37 | 1016.9 |
| 20260502214554 | 17 | 5 | 3.2 | 8.0 | 0.00 | 0.00 | 0.00 | 38 | 1017.2 |
| 20260502213105 | 17 | 360 | 0.0 | 8.0 | 0.00 | 0.00 | 0.00 | 38 | 1017.5 |
| 20260502211632 | 17 | 0 | 0.0 | 12.9 | 0.00 | 0.00 | 0.00 | 39 | 1017.7 |
| 20260502210100 | 17 | 21 | 4.8 | 12.9 | 0.00 | 0.00 | 0.00 | 39 | 1017.8 |
| 20260502203059 | 17 | 345 | 4.8 | 20.9 | 0.00 | 0.00 | 0.00 | 38 | 1018.0 |
| 20260502201558 | 17 | 102 | 4.8 | 19.3 | 0.00 | 0.00 | 0.00 | 39 | 1018.1 |
| 20260502200052 | 17 | 84 | 12.9 | 20.9 | 0.00 | 0.00 | 0.00 | 41 | 1018.3 |
| 20260502194601 | 16 | 59 | 17.7 | 27.4 | 0.00 | 0.00 | 0.00 | 41 | 1018.5 |
| 20260502193056 | 16 | 53 | 9.7 | 19.3 | 0.00 | 0.00 | 0.00 | 42 | 1018.5 |
| 20260502191550 | 16 | 32 | 6.4 | 20.9 | 0.00 | 0.00 | 0.00 | 42 | 1018.8 |
| 20260502190057 | 16 | 0 | 6.4 | 12.9 | 0.00 | 0.00 | 0.00 | 41 | 1018.8 |
| 20260502184555 | 16 | 0 | 0.0 | 6.4 | 0.00 | 0.00 | 0.00 | 40 | 1018.9 |
| 20260502183104 | 16 | 0 | 0.0 | 9.7 | 0.00 | 0.00 | 0.00 | 39 | 1018.9 |
| 20260502181551 | 16 | 0 | 0.0 | 6.4 | 0.00 | 0.00 | 0.00 | 41 | 1019.1 |
| 20260502163055 | 15 | 299 | 6.4 | 17.7 | 0.00 | 0.00 | 0.00 | 43 | 1019.4 |
| 20260502161549 | 15 | 336 | 17.7 | 25.7 | 0.00 | 0.00 | 0.00 | 41 | 1019.5 |
| 20260502151556 | 14 | 61 | 8.0 | 17.7 | 0.00 | 0.00 | 0.00 | 44 | 1019.3 |
| 20260502123058 | 9 | 30 | 17.7 | 24.1 | 0.00 | 0.00 | 0.00 | 54 | 1017.9 |
| 20260502121553 | 9 | 34 | 19.3 | 25.7 | 0.00 | 0.00 | 0.00 | 53 | 1017.9 |
| 20260502114610 | 10 | 42 | 22.5 | 33.8 | 0.00 | 0.00 | 0.00 | 51 | 1017.3 |
| 20260502113059 | 10 | 34 | 22.5 | 30.6 | 0.00 | 0.00 | 0.00 | 51 | 1017.2 |
| 20260502111559 | 10 | 42 | 22.5 | 29.0 | 0.00 | 0.00 | 0.00 | 50 | 1017.0 |
| 20260502110053 | 10 | 42 | 19.3 | 29.0 | 0.00 | 0.00 | 0.00 | 49 | 1016.7 |
| 20260502104554 | 8 | 13 | 6.4 | 16.1 | 0.00 | 0.00 | 0.00 | 54 | 1016.6 |
| 20260502103055 | 8 | 11 | 4.8 | 14.5 | 0.00 | 0.00 | 0.00 | 49 | 1016.5 |
| 20260502101623 | 8 | 360 | 6.4 | 9.7 | 0.00 | 0.00 | 0.00 | 50 | 1016.3 |
| 20260502090113 | 10 | 331 | 8.0 | 16.1 | 0.00 | 0.00 | 0.00 | 45 | 1015.4 |
| 20260502080106 | 11 | 313 | 4.8 | 8.0 | 0.00 | 0.00 | 0.00 | 39 | 1014.9 |
| 20260502070107 | 11 | 328 | 3.2 | 8.0 | 0.00 | 0.00 | 0.00 | 40 | 1014.8 |
| 20260502064556 | 12 | 0 | 1.6 | 9.7 | 0.00 | 0.00 | 0.00 | 36 | 1014.8 |
| 20260502063058 | 13 | 321 | 11.3 | 20.9 | 0.00 | 0.00 | 0.00 | 33 | 1014.8 |
| 20260502061602 | 13 | 322 | 11.3 | 19.3 | 0.00 | 0.00 | 0.00 | 34 | 1014.8 |
| 20260502060053 | 13 | 328 | 16.1 | 22.5 | 0.00 | 0.00 | 0.00 | 34 | 1014.8 |
| 20260502054555 | 13 | 319 | 19.3 | 27.4 | 0.00 | 0.00 | 0.00 | 32 | 1014.7 |
| 20260502053054 | 14 | 321 | 20.9 | 25.7 | 0.00 | 0.00 | 0.00 | 30 | 1014.6 |
| 20260502051620 | 14 | 315 | 17.7 | 27.4 | 0.00 | 0.00 | 0.00 | 30 | 1014.5 |
| 20260502050054 | 13 | 329 | 22.5 | 27.4 | 0.00 | 0.00 | 0.00 | 31 | 1014.3 |
| 20260502044554 | 13 | 322 | 14.5 | 20.9 | 0.00 | 0.00 | 0.00 | 31 | 1014.4 |
| 20260502043054 | 13 | 302 | 6.4 | 11.3 | 0.00 | 0.00 | 0.00 | 31 | 1014.4 |
| 20260502041551 | 15 | 296 | 12.9 | 22.5 | 0.00 | 0.00 | 0.00 | 27 | 1014.5 |
| 20260502040057 | 14 | 294 | 12.9 | 20.9 | 0.00 | 0.00 | 0.00 | 27 | 1014.5 |
| 20260502034553 | 14 | 293 | 8.0 | 19.3 | 0.00 | 0.00 | 0.00 | 26 | 1014.5 |
| 20260502033058 | 15 | 296 | 9.7 | 16.1 | 0.00 | 0.00 | 0.00 | 25 | 1014.3 |
| 20260502031555 | 15 | 292 | 4.8 | 11.3 | 0.00 | 0.00 | 0.00 | 24 | 1014.1 |
| 20260502030100 | 15 | 293 | 1.6 | 8.0 | 0.00 | 0.00 | 0.00 | 23 | 1014.0 |
| 20260502024553 | 16 | 0 | 1.6 | 8.0 | 0.00 | 0.00 | 0.00 | 22 | 1013.8 |
| 20260502023118 | 17 | 292 | 4.8 | 14.5 | 0.00 | 0.00 | 0.00 | 20 | 1013.7 |
| 20260502021548 | 18 | 292 | 8.0 | 16.1 | 0.00 | 0.00 | 0.00 | 18 | 1013.7 |
| 20260502020106 | 20 | 288 | 6.4 | 12.9 | 0.00 | 0.00 | 0.00 | 18 | 1013.6 |
| 20260502014552 | 20 | 285 | 6.4 | 16.1 | 0.00 | 0.00 | 0.00 | 18 | 1013.7 |